Regional Weather Roundup
Issued by NWS

Home | Current Version | Previous Version | Graphics & Text | Print | Product List | Glossary Off
Versions: 1 2 3 4 5 6 7 8 9 10 11 12 13 14 15 16 17 18 19 20 21 22 23 24 25 26 27 28 29 30 31 32 33 34 35 36 37 38 39 40 41 42 43 44 45 46 47 48 49 50

343
ASUS43 KTOP 291108
RWRKS

WEATHER ROUNDUP FOR KANSAS
NATIONAL WEATHER SERVICE GOODLAND KS
600 AM CDT SAT APR 29 2017

NOTE:  "FAIR" INDICATES FEW OR NO CLOUDS BELOW 12,000 FEET WITH NO
SIGNIFICANT WEATHER AND/OR OBSTRUCTIONS TO VISIBILITY.

KSZ001>006-013>018-027>032-041>047-291200-
NORTHWEST KANSAS

CITY           SKY/WX    TMP DP  RH WIND       PRES   REMARKS
GOODLAND       LGT SNOW  33  32  96 N18       30.03R FOG     WCI  22
HAYS           LGT RAIN  39  37  92 NE21      29.96F WCI  29
HILL CITY      RAIN      38  37  97 NE20G25   30.02R FOG     WCI  28
RUSSELL        RAIN      39  38  96 NE16G24   29.96R FOG     WCI  30
$$

KSZ061>065-074>080-084>089-291200-
SOUTHWEST KANSAS

CITY           SKY/WX    TMP DP  RH WIND       PRES   REMARKS
DODGE CITY     RAIN      37  36  96 N20G28    29.93R FOG     WCI  27
ELKHART          N/A     31  26  82 N14         N/A  WCI  21
GARDEN CITY    LGT SNOW  32  31  96 N17       29.96S FOG     WCI  21
GREAT BEND     LGT RAIN  39  38  96 NE22G28   29.94F FOG     WCI  29
LIBERAL        LGT SNOW  33  32  96 N20       29.90F FOG     WCI  21
PRATT          TSTM      37  36  96 NE20      29.92R WCI  26
$$

KSZ066>073-081>083-090>101-291200-
SOUTHEAST KANSAS

CITY           SKY/WX    TMP DP  RH WIND       PRES   REMARKS
CHANUTE        TSTM      50  48  93 NE13      29.80R FOG
COFFEYVILLE    TSTM      51  50  96 N21G32    29.71F FOG
HUTCHINSON     LGT RAIN  42  40  92 N15G22    29.91R
MEDICINE LODGE   N/A     41  38  89 N21G35    29.87R
NEWTON         LGT RAIN  42  41  96 N21G30    29.89R FOG
PARSONS        TSTM      51  49  92 N15G24    29.77F
WICHITA INTL   TSTM      44  43  96 N24G32    29.83F
WICHITA JABRA  TSTM      43  43 100 N25G33    29.81F FOG
WICHITA MCCONL TSTM      45  43  93 N21G35    29.78F
WINFIELD       LGT RAIN  47  46  97 N22G32    29.72F
$$

KSZ007>012-019>026-033>040-048>060-102>105-291200-
NORTHEAST KANSAS

CITY           SKY/WX    TMP DP  RH WIND       PRES   REMARKS
CONCORDIA      LGT RAIN  40  40 100 NE16      29.98F WCI  31
EMPORIA        RAIN      45  45 100 N14G25    29.85S FOG
LAWRENCE       LGT RAIN  46  46 100 N12G25    29.89F FOG
MANHATTAN      CLOUDY    44  41  89 NE15G28   29.95R
MARYSVILLE     CLOUDY    43  37  81 N15G22    29.99F
OLATHE IND     LGT RAIN  46  45  96 N14       29.88S FOG
OLATHE EXE     LGT RAIN  45  45 100 N14G24    29.88R FOG
SALINA         RAIN      43  41  93 N12       29.97R FOG
TOPEKA BILLARD LGT RAIN  46  46 100 NE8G21    29.91R
TOPEKA FORBES  LGT RAIN  47  45  93 NE7G18    29.89R FOG
$$




USA.gov is the U.S. government's official web portal to all federal, state and local government web resources and services.